D8954 Weather Reports


Display with metric or nautical units.
time (UTC)temp
F
wind
direction
speed
MPH
gust
MPH
rain 1hr
in
rain 24hr
in
rain mn
in
humidity
%
barometer
mb
20260901045504 55 196 2.0 3.0 0.00 0.26 0.01 90 1020.4
20260901044506 55 238 2.0 5.0 0.00 0.26 0.01 90 1020.4
20260901044004 55 203 2.0 3.0 0.00 0.26 0.01 91 1020.4
20260901043504 55 241 1.0 3.0 0.00 0.26 0.01 91 1020.4
20260901042003 54 244 1.0 3.0 0.00 0.26 0.01 90 1020.4
20260901041504 54 243 1.0 5.0 0.00 0.26 0.01 90 1020.4
20260901041004 54 235 1.0 3.0 0.00 0.26 0.01 90 1020.3
20260901040503 54 214 2.0 3.0 0.00 0.26 0.01 90 1020.3
20260901040003 54 233 2.0 5.0 0.00 0.26 0.01 90 1020.3
20260901035503 55 220 2.0 6.0 0.00 0.26 0.01 90 1020.3
20260901035004 55 218 2.0 6.0 0.00 0.26 0.01 90 1020.3
20260901034506 55 224 2.0 3.0 0.00 0.26 0.01 90 1020.2
20260901034006 55 227 1.0 5.0 0.00 0.26 0.01 90 1020.1
20260901033006 55 235 2.0 3.0 0.00 0.26 0.01 91 1020.1
20260901032505 55 219 2.0 3.0 0.00 0.26 0.01 91 1020.1
20260901032005 55 230 2.0 3.0 0.00 0.26 0.01 91 1020.1
20260901031506 55 237 1.0 3.0 0.01 0.26 0.01 91 1020.1
20260901031005 55 225 2.0 5.0 0.01 0.26 0.01 91 1020.0
20260901030505 55 246 2.0 5.0 0.01 0.26 0.01 91 1020.0
20260901030005 54 221 2.0 3.0 0.01 0.26 0.01 91 1020.0
20260901025505 54 241 1.0 3.0 0.01 0.26 0.01 91 1020.0
20260901025005 54 239 1.0 3.0 0.01 0.26 0.01 91 1020.1
20260901024506 54 226 1.0 3.0 0.01 0.26 0.01 91 1020.1
20260901024006 54 227 1.0 3.0 0.01 0.26 0.01 91 1020.1
20260901023505 54 227 1.0 3.0 0.01 0.26 0.01 91 1020.0
20260901022505 54 223 1.0 2.0 0.01 0.26 0.01 91 1020.0
20260901022005 54 223 1.0 2.0 0.01 0.26 0.01 91 1019.8
20260901021006 55 223 1.0 2.0 0.00 0.25 0.00 90 1019.7
20260901020505 55 223 0.0 2.0 0.00 0.25 0.00 90 1019.6
20260901020006 55 223 0.0 1.0 0.00 0.25 0.00 90 1019.6
20260901015005 55 223 1.0 2.0 0.00 0.25 0.00 90 1019.4
20260901014505 55 223 1.0 2.0 0.00 0.25 0.00 90 1019.4
20260901014006 55 223 1.0 2.0 0.00 0.25 0.00 90 1019.4
20260901013506 55 222 1.0 2.0 0.00 0.25 0.00 90 1019.4
20260901013005 55 222 1.0 2.0 0.00 0.25 0.00 90 1019.4
20260901012505 56 222 1.0 2.0 0.00 0.25 0.00 90 1019.3
20260901012005 56 221 1.0 2.0 0.00 0.25 0.00 90 1019.4
20260901011505 55 221 0.0 1.0 0.00 0.25 0.00 90 1019.4
20260901011005 56 221 0.0 2.0 0.00 0.25 0.00 90 1019.4
20260901010505 56 221 1.0 2.0 0.00 0.26 0.00 90 1019.4
20260901010006 56 220 1.0 2.0 0.00 0.26 0.00 90 1019.4
20260901005506 56 220 1.0 2.0 0.00 0.27 0.00 90 1019.3
20260901005005 56 220 0.0 3.0 0.00 0.29 0.00 90 1019.3
20260901004006 57 213 1.0 2.0 0.00 0.34 0.00 90 1019.3
20260901003005 57 213 1.0 2.0 0.00 0.35 0.00 90 1019.2
20260901002505 57 212 2.0 3.0 0.00 0.35 0.00 90 1019.2
20260901002005 57 220 2.0 3.0 0.00 0.35 0.00 90 1019.2
20260901001507 58 226 2.0 3.0 0.00 0.35 0.00 90 1019.3
20260901001005 58 209 1.0 3.0 0.00 0.35 0.00 90 1019.2
20260901000505 58 215 2.0 3.0 0.00 0.35 0.00 91 1019.1
20260831235505 58 218 1.0 3.0 0.00 0.35 0.00 91 1019.2
20260831235005 57 213 2.0 2.0 0.00 0.35 0.00 91 1019.3
20260831234505 57 213 1.0 2.0 0.00 0.35 0.00 91 1019.2
20260831234006 57 213 2.0 3.0 0.00 0.35 0.00 91 1019.2
20260831233505 57 213 2.0 3.0 0.00 0.35 0.00 91 1019.3
20260831233005 57 208 2.0 3.0 0.00 0.35 0.00 91 1019.1
20260831232505 57 211 2.0 3.0 0.00 0.35 0.00 90 1019.1
20260831232005 58 218 2.0 3.0 0.00 0.35 0.00 91 1019.1
20260831231505 57 216 2.0 3.0 0.00 0.35 0.00 91 1019.2
20260831231005 57 206 1.0 3.0 0.00 0.35 0.00 91 1019.2
20260831230505 57 203 0.0 3.0 0.00 0.35 0.00 91 1019.1
20260831230005 57 205 2.0 2.0 0.00 0.35 0.00 91 1019.1
20260831225506 57 205 1.0 2.0 0.00 0.35 0.00 90 1019.1
20260831225005 57 205 1.0 3.0 0.00 0.35 0.00 90 1019.1
20260831224006 58 204 2.0 2.0 0.00 0.35 0.00 90 1018.9
20260831223505 58 204 1.0 2.0 0.00 0.35 0.00 90 1019.0
20260831223005 58 204 1.0 2.0 0.00 0.35 0.00 90 1018.9
20260831222505 58 204 1.0 3.0 0.00 0.35 0.00 90 1019.0
20260831222005 58 200 1.0 2.0 0.00 0.35 0.00 90 1019.0
20260831221505 58 200 1.0 2.0 0.00 0.35 0.00 90 1018.9
20260831221007 58 200 1.0 2.0 0.00 0.35 0.00 90 1018.9
20260831220505 58 198 2.0 2.0 0.00 0.35 0.00 90 1019.0
20260831220005 58 198 1.0 2.0 0.00 0.35 0.00 90 1018.9
20260831215505 58 198 0.0 2.0 0.00 0.35 0.35 89 1018.9
20260831215007 59 198 0.0 2.0 0.00 0.35 0.35 89 1018.8
20260831214505 59 198 1.0 3.0 0.00 0.35 0.35 89 1018.7
20260831214006 59 195 1.0 3.0 0.00 0.35 0.35 89 1018.6
20260831213505 59 194 2.0 3.0 0.00 0.35 0.35 89 1018.6
20260831212505 59 194 2.0 3.0 0.00 0.35 0.35 88 1018.6
20260831212005 59 200 3.0 5.0 0.00 0.35 0.35 89 1018.5
20260831211505 60 202 2.0 3.0 0.00 0.35 0.35 88 1018.5
20260831211005 60 217 3.0 6.0 0.00 0.35 0.35 89 1018.4
20260831210506 60 191 3.0 5.0 0.00 0.35 0.35 88 1018.3
20260831210005 60 199 2.0 3.0 0.00 0.35 0.35 88 1018.3
20260831205506 60 195 3.0 6.0 0.00 0.35 0.35 89 1018.2
20260831204505 60 190 3.0 6.0 0.00 0.35 0.35 88 1018.2
20260831204006 60 192 5.0 7.0 0.00 0.35 0.35 88 1018.2
20260831203505 60 219 4.0 7.0 0.00 0.35 0.35 88 1018.0
20260831202505 60 202 4.0 6.0 0.00 0.35 0.35 88 1017.8
20260831202005 60 197 3.0 5.0 0.00 0.35 0.35 88 1017.8
20260831201505 60 215 2.0 6.0 0.00 0.35 0.35 88 1017.6
20260831201005 60 219 2.0 5.0 0.00 0.35 0.35 88 1017.6
20260831200505 60 229 2.0 6.0 0.01 0.35 0.35 88 1017.5
20260831200005 60 201 3.0 6.0 0.06 0.35 0.35 88 1017.6
20260831195005 60 226 3.0 6.0 0.09 0.35 0.35 88 1017.6
20260831194006 60 219 3.0 6.0 0.09 0.35 0.35 88 1017.7
20260831193005 60 212 3.0 6.0 0.09 0.35 0.35 88 1017.4
20260831192505 61 204 3.0 5.0 0.09 0.35 0.35 88 1017.4
20260831192005 61 173 2.0 5.0 0.09 0.35 0.35 88 1017.4
20260831191505 61 9 2.0 5.0 0.09 0.35 0.35 87 1017.5
20260831191005 61 2 3.0 5.0 0.09 0.35 0.35 86 1017.5
20260831190505 61 256 3.0 8.0 0.08 0.35 0.35 86 1017.2
20260831190005 61 220 2.0 5.0 0.03 0.30 0.30 85 1017.4
20260831185505 62 208 3.0 7.0 0.01 0.28 0.28 85 1017.0
20260831185005 62 222 6.0 10.0 0.00 0.27 0.27 85 1016.7
20260831184505 61 208 4.0 8.0 0.00 0.27 0.27 85 1016.5
20260831184006 61 180 2.0 13.0 0.00 0.27 0.27 85 1016.5
20260831183504 61 212 3.0 8.0 0.00 0.27 0.27 85 1016.3
20260831183005 61 221 3.0 7.0 0.00 0.27 0.27 86 1016.4
20260831181505 61 253 1.0 3.0 0.00 0.27 0.27 86 1016.4
20260831181005 61 205 1.0 5.0 0.00 0.27 0.27 85 1016.4
20260831180005 61 218 1.0 3.0 0.00 0.27 0.27 85 1016.3
20260831174505 62 216 3.0 7.0 0.00 0.27 0.27 84 1016.2
20260831174006 62 213 6.0 12.0 0.00 0.27 0.27 84 1016.1
20260831173505 62 206 3.0 10.0 0.00 0.27 0.27 83 1016.2
20260831173005 62 217 3.0 6.0 0.00 0.27 0.27 84 1016.1
20260831172005 62 223 2.0 7.0 0.00 0.27 0.27 84 1016.0
20260831171505 62 217 3.0 12.0 0.00 0.27 0.27 84 1016.0
20260831171005 62 224 5.0 8.0 0.00 0.27 0.27 84 1015.8
20260831170505 61 217 2.0 8.0 0.00 0.27 0.27 84 1015.7
20260831170005 61 207 4.0 7.0 0.00 0.27 0.27 83 1015.6
20260831165505 61 207 6.0 10.0 0.01 0.27 0.27 83 1015.4
20260831165005 61 204 3.0 7.0 0.01 0.27 0.27 83 1015.5
20260831164505 61 213 5.0 9.0 0.06 0.27 0.27 83 1015.6
20260831163504 61 186 3.0 7.0 0.13 0.27 0.27 83 1015.7
20260831163005 61 200 2.0 6.0 0.13 0.27 0.27 83 1015.9
20260831162505 61 206 2.0 5.0 0.13 0.27 0.27 83 1015.9
20260831161505 61 204 5.0 7.0 0.13 0.27 0.27 82 1015.9
20260831161004 61 200 5.0 10.0 0.13 0.27 0.27 82 1015.8
20260831160005 61 218 8.0 14.0 0.13 0.27 0.27 83 1015.9
20260831155504 62 200 5.0 12.0 0.12 0.26 0.26 83 1016.0
20260831155005 62 204 6.0 12.0 0.12 0.26 0.26 81 1016.2
20260831154505 64 204 7.0 12.0 0.07 0.21 0.21 77 1016.1
20260831154006 65 355 4.0 8.0 0.00 0.14 0.14 75 1015.5
20260831153505 65 349 3.0 5.0 0.00 0.14 0.14 73 1015.2
20260831153006 66 5 1.0 2.0 0.00 0.14 0.14 71 1015.1
20260831152505 66 5 0.0 2.0 0.00 0.14 0.14 70 1014.9
20260831151505 66 42 4.0 8.0 0.00 0.14 0.14 69 1014.8
20260831151005 67 23 4.0 9.0 0.00 0.14 0.14 68 1014.9
20260831150505 67 19 7.0 12.0 0.00 0.14 0.14 67 1014.8
20260831150005 69 356 7.0 20.0 0.00 0.14 0.14 64 1014.8
20260831145505 70 343 5.0 10.0 0.00 0.14 0.14 61 1014.8
20260831145005 71 317 4.0 6.0 0.00 0.14 0.14 57 1014.9
20260831144505 71 200 5.0 9.0 0.00 0.14 0.14 56 1014.5
20260831144006 71 230 5.0 8.0 0.00 0.14 0.14 55 1014.4
20260831143505 71 234 4.0 14.0 0.00 0.14 0.14 56 1014.4
20260831143005 71 237 7.0 10.0 0.00 0.14 0.14 56 1014.5
20260831142505 71 242 3.0 10.0 0.00 0.14 0.14 58 1014.4
20260831142005 71 222 7.0 12.0 0.00 0.14 0.14 57 1014.5
20260831141505 71 222 5.0 12.0 0.00 0.14 0.14 56 1014.4
20260831141005 71 219 7.0 18.0 0.00 0.14 0.14 56 1014.4
20260831140504 71 218 8.0 17.0 0.00 0.14 0.14 56 1014.5
20260831140005 70 216 9.0 15.0 0.00 0.14 0.14 56 1014.5
20260831135505 70 232 7.0 17.0 0.00 0.14 0.14 58 1014.6
20260831135005 70 230 10.0 16.0 0.00 0.14 0.14 58 1014.6
20260831134505 70 241 5.0 20.0 0.00 0.14 0.14 61 1014.7
20260831134006 70 215 10.0 20.0 0.00 0.14 0.14 59 1014.7
20260831133505 71 220 12.0 16.0 0.00 0.14 0.14 58 1014.8
20260831133005 71 212 6.0 16.0 0.00 0.14 0.14 59 1014.8
20260831132505 71 229 5.0 14.0 0.00 0.14 0.14 60 1014.8
20260831132005 70 217 5.0 14.0 0.00 0.14 0.14 62 1014.9
20260831131506 71 203 7.0 12.0 0.00 0.14 0.14 60 1014.9
20260831131006 72 217 5.0 12.0 0.00 0.14 0.14 60 1014.9
20260831130507 70 220 7.0 16.0 0.00 0.14 0.14 61 1015.0
20260831130005 70 224 5.0 15.0 0.00 0.14 0.14 60 1015.0
20260831125505 72 206 9.0 20.0 0.00 0.14 0.14 59 1015.1
20260831125005 71 215 6.0 13.0 0.00 0.14 0.14 62 1015.0
20260831124504 71 249 6.0 14.0 0.00 0.14 0.14 64 1015.1
20260831124006 70 207 5.0 15.0 0.00 0.14 0.14 64 1015.1
20260831123505 70 191 6.0 12.0 0.00 0.14 0.14 66 1015.3
20260831123004 69 254 5.0 10.0 0.00 0.14 0.14 69 1015.2
20260831122505 68 217 5.0 12.0 0.00 0.14 0.14 71 1015.2
20260831122005 67 195 4.0 10.0 0.00 0.14 0.14 75 1015.4
20260831121505 65 207 7.0 13.0 0.00 0.14 0.14 76 1015.5
20260831121005 65 211 3.0 5.0 0.02 0.14 0.14 79 1015.5
20260831120505 66 234 3.0 12.0 0.04 0.14 0.14 75 1015.5
20260831120004 68 276 7.0 12.0 0.04 0.14 0.14 71 1015.6
20260831113505 66 206 4.0 8.0 0.04 0.14 0.14 77 1015.3
20260831113005 67 194 2.0 3.0 0.04 0.14 0.14 78 1015.3
20260831112504 66 213 2.0 8.0 0.04 0.14 0.14 79 1015.4
20260831111005 67 233 5.0 12.0 0.02 0.13 0.13 70 1015.5
20260831110505 68 232 2.0 15.0 0.00 0.10 0.10 66 1015.1
20260831105505 69 227 8.0 17.0 0.00 0.10 0.10 67 1015.0
20260831105005 68 226 6.0 13.0 0.00 0.10 0.10 68 1014.9
20260831104006 67 221 6.0 17.0 0.00 0.10 0.10 68 1015.1
20260831103505 69 234 11.0 21.0 0.00 0.10 0.10 65 1015.2
20260831103004 70 211 5.0 14.0 0.00 0.10 0.10 67 1015.0
20260831102505 70 207 9.0 14.0 0.00 0.10 0.10 66 1014.9
20260831102005 69 215 8.0 16.0 0.00 0.10 0.10 66 1015.0
20260831101505 68 215 6.0 17.0 0.00 0.10 0.10 68 1015.2
20260831101005 69 218 9.0 17.0 0.00 0.10 0.10 67 1015.1
20260831100005 69 202 5.0 13.0 0.00 0.10 0.10 70 1015.2
20260831095505 68 242 6.0 14.0 0.00 0.10 0.10 70 1015.3
20260831095005 68 221 6.0 10.0 0.00 0.10 0.10 69 1015.3
20260831094005 68 219 10.0 21.0 0.00 0.10 0.10 68 1015.3
20260831093505 67 214 4.0 9.0 0.00 0.10 0.10 71 1015.3
20260831093005 68 200 5.0 13.0 0.00 0.10 0.10 69 1015.2
20260831092507 68 210 5.0 10.0 0.00 0.10 0.10 71 1015.3
20260831092005 67 212 6.0 13.0 0.00 0.10 0.10 71 1015.3
20260831091504 67 232 6.0 16.0 0.00 0.10 0.10 74 1015.3
20260831090504 66 177 3.0 8.0 0.00 0.10 0.10 72 1015.3
20260831090004 67 233 10.0 16.0 0.00 0.10 0.10 71 1015.3
20260831085504 67 219 8.0 15.0 0.00 0.10 0.10 73 1015.2
20260831085004 67 216 7.0 16.0 0.00 0.10 0.10 73 1015.1
20260831084505 67 206 6.0 13.0 0.00 0.10 0.10 74 1015.1
20260831083504 66 210 9.0 21.0 0.00 0.10 0.10 73 1015.1
20260831083005 66 214 6.0 17.0 0.00 0.10 0.10 74 1015.1
20260831082505 66 223 3.0 8.0 0.00 0.10 0.10 74 1015.1
20260831082005 66 216 6.0 12.0 0.00 0.10 0.10 73 1015.1
20260831081505 66 204 9.0 16.0 0.00 0.10 0.10 73 1015.0
20260831081005 66 218 5.0 9.0 0.00 0.10 0.10 74 1015.0
20260831080505 66 209 4.0 9.0 0.00 0.10 0.10 76 1014.9
20260831080004 65 209 2.0 12.0 0.00 0.10 0.10 77 1014.8
20260831075505 65 240 5.0 12.0 0.00 0.10 0.10 76 1014.9
20260831075005 65 214 4.0 9.0 0.00 0.10 0.10 76 1014.8
20260831074504 65 212 6.0 12.0 0.00 0.10 0.10 78 1014.7
20260831074005 64 241 4.0 12.0 0.00 0.10 0.10 79 1014.7
20260831073505 64 196 5.0 9.0 0.00 0.10 0.10 80 1014.6
20260831073004 63 213 5.0 9.0 0.00 0.10 0.10 80 1014.7
20260831072504 64 201 5.0 10.0 0.00 0.10 0.10 79 1014.6
20260831072004 65 230 4.0 10.0 0.00 0.10 0.10 78 1014.6
20260831071505 65 212 6.0 12.0 0.00 0.10 0.10 79 1014.6
20260831070505 64 230 6.0 13.0 0.00 0.10 0.10 81 1014.4
20260831065504 64 220 4.0 8.0 0.00 0.10 0.10 82 1014.5
20260831064505 64 153 2.0 6.0 0.00 0.10 0.10 83 1014.4
20260831064005 64 15 2.0 8.0 0.00 0.10 0.10 84 1014.4
20260831063504 63 203 1.0 5.0 0.00 0.10 0.10 83 1014.3
20260831062504 63 205 3.0 6.0 0.00 0.10 0.10 84 1014.3
20260831061005 62 214 4.0 10.0 0.00 0.10 0.10 84 1014.1
20260831060504 62 210 2.0 8.0 0.00 0.10 0.10 85 1014.1
20260831055505 62 235 4.0 8.0 0.00 0.10 0.10 84 1014.1
20260831055005 62 240 4.0 9.0 0.00 0.10 0.10 85 1014.0
20260831054505 61 231 2.0 7.0 0.00 0.10 0.10 85 1013.9
20260831054005 61 234 3.0 7.0 0.00 0.10 0.10 85 1013.8
20260831053505 61 225 3.0 10.0 0.00 0.10 0.10 86 1013.8
20260831053004 61 207 3.0 12.0 0.00 0.10 0.10 86 1013.7
20260831052504 61 232 4.0 10.0 0.00 0.10 0.10 86 1013.6
20260831052005 61 252 2.0 5.0 0.00 0.10 0.10 86 1013.6
20260831051504 60 252 4.0 8.0 0.00 0.10 0.10 86 1013.5
20260831051005 61 219 4.0 12.0 0.00 0.10 0.10 86 1013.6
20260831050504 61 247 3.0 10.0 0.00 0.10 0.10 87 1013.6
20260831050004 60 206 3.0 7.0 0.00 0.10 0.10 87 1013.5